Simultaneous Nadir Overpasses (SNOs) Predictions

Prediction of SNOs between GOES-17 and TERRA Satellite Orbit:

Table of predicted SNOs for the next 14.0 days since TLE Epoch: 9/14/2024
Index Date Time (GOES-17) GOES-17 Lat,Lon TERRA Lat,Lon Distance(km) Time Diff (sec)
1 09/14/2024 16:35:04 0.00,-104.73 -0.36,-103.11 185.10 80
2 09/15/2024 04:54:59 -0.00,-104.69 -0.70,-107.95 370.96 80
3 09/17/2024 04:34:26 0.00,-104.69 0.25,-103.64 120.01 80
4 09/17/2024 16:54:11 -0.00,-104.73 0.76,-108.44 421.54 80
5 09/19/2024 16:38:54 -0.00,-104.74 -0.12,-104.11 70.58 80
6 09/20/2024 04:58:50 0.00,-104.69 -0.89,-108.96 484.67 80
7 09/22/2024 04:38:12 0.01,-104.70 0.04,-104.63 7.90 80
8 09/24/2024 16:39:57 -0.01,-104.74 0.08,-105.09 40.57 80
9 09/26/2024 16:24:36 -0.00,-104.74 -0.84,-100.75 453.54 80
10 09/27/2024 04:44:30 0.00,-104.70 -0.19,-105.58 100.83 80
